Regional Weather Roundup
Issued by NWS Kansas City/Pleasant Hill, MO

Home | Current Version | Previous Version | Text Only | Print | Product List | Glossary On
Versions: 1 2 3 4 5 6 7 8 9 10 11 12 13 14 15 16 17 18 19 20 21 22 23 24 25 26 27 28 29 30 31 32 33 34 35 36 37 38 39 40 41 42 43 44 45 46 47 48 49 50
000
ASUS43 KEAX 211311
RWREAX

WEATHER ROUNDUP FOR EASTERN KANSAS AND NORTHWEST MISSOURI
NATIONAL WEATHER SERVICE KANSAS CITY/PLEASANT HILL MO
800 AM CDT MON APR 21 2014

KSZ040-057-103>105-MOZ028-029-037-043-211400-
...KANSAS CITY METROPOLITAN AREA...

CITY           SKY/WX    TMP DP  RH WIND       PRES   REMARKS
K.C. INTL      CLOUDY    62  57  83 S9        29.99S
K.C. DOWNTOWN  CLOUDY    63  58  83 S9        29.98F
LEES SUMMIT    CLOUDY    61  56  83 SW7       30.01R
OLATHE - IXD   CLOUDY    60  57  89 S8        30.01R
OLATHE - OJC   CLOUDY    60  57  89 S7        29.99R
LAWRENCE       CLOUDY    63  58  83 SW5       30.00R

$$

MOZ001>008-011>017-020>025-030>033-038>040-044>046-053-054-211400-
...NORTHERN AND CENTRAL MISSOURI...

CITY           SKY/WX    TMP DP  RH WIND       PRES   REMARKS
ST. JOSEPH     CLOUDY    61  58  90 CALM      29.98R
MOSBY          CLOUDY    61  61 100 S3        29.99S
WARRENSBURG    LGT RAIN N/A N/A N/A S7        30.02S
WHITEMAN AFB   CLOUDY    60  57  91 SW7       30.02R
CLINTON        RAIN      61  61 100 SW5       30.04R VSB 1
SEDALIA        LGT RAIN  62  58  86 SW6       30.02F
WARSAW         NOT AVBL
MARSHALL         N/A     64  59  82 SW7       30.02S
CHILLICOTHE      N/A     61  58  90 S5        30.00S
MOBERLY        CLOUDY    64  54  68 SW13      30.02R
KIRKSVILLE     CLOUDY    63  55  75 VRB6      30.00R

$$

MOZ041-047>049-056>058-063>065-088>090-097-211400-
...EASTERN AND SOUTHERN MISSOURI...

CITY           SKY/WX    TMP DP  RH WIND       PRES   REMARKS
ST. LOUIS INTL CLOUDY    67  46  47 S8        30.02R
SPIRIT OF STL  CLOUDY    66  48  52 S7        30.01R
COLUMBIA       LGT RAIN  60  56  86 SW8       30.03R
JEFFERSON CITY LGT RAIN  61  57  87 NW6       30.03R
MEXICO         LGT RAIN  57  54  88 SW5       30.02R
HANNIBAL       CLOUDY    64  50  59 SW6       30.00S
ROLLA          CLOUDY    59  54  83 S9        30.04R
LEBANON        CLOUDY    61  57  88 SW3       30.06S FOG
OSAGE BEACH    CLOUDY    57  55  94 CALM      30.06S
SPRINGFIELD    CLOUDY    60  58  92 CALM      30.04S FOG
BRANSON        CLOUDY    59  57  94 CALM      30.07R FOG
NEVADA         CLOUDY    59  59 100 S7        30.04S FOG
JOPLIN         CLOUDY    61  59  93 S5        30.04R FOG
WEST PLAINS    CLOUDY    60  57  89 CALM      30.07S
MALDEN         CLOUDY    64  55  72 CALM      30.07

$$

IAZ060-094-KSZ022-034>040-054-083-096-NEZ052-066-093-211400-
...KANSAS...SOUTHEAST NEBRASKA AND IOWA...

CITY           SKY/WX    TMP DP  RH WIND       PRES   REMARKS
TOPEKA         CLOUDY    62  57  83 SW6       30.00R
MANHATTAN      PTSUNNY   59  56  89 W8        29.99S
EMPORIA        CLOUDY    58  57  97 S9        30.00R FOG
CHANUTE        LGT RAIN  60  58  92 S6        30.01S FOG
WICHITA        CLOUDY    55  54  96 W3        30.02R FOG
OMAHA          LGT RAIN  59  57  93 CALM      29.96R FOG
LINCOLN        CLOUDY    61  53  75 NW9       29.98R
FALLS CITY     CLOUDY    61  57  87 SW7       29.97R
LAMONI         HVY RAIN  60  57  89 W10       29.97R FOG
DES MOINES     CLOUDY    63  56  78 S6        29.95R

$$




USA.gov is the U.S. government's official web portal to all federal, state and local government web resources and services.